Regional Weather Roundup
Issued by NWS

Home | Current Version | Previous Version | Graphics & Text | Print | Product List | Glossary On
Versions: 1 2 3 4 5 6 7 8 9 10 11 12 13 14 15 16 17 18 19 20 21 22 23 24 25 26 27
000
ASUS45 KBOU 282007
RWRCO

WEATHER ROUNDUP FOR COLORADO
NATIONAL WEATHER SERVICE DENVER/BOULDER CO
200 PM MDT SAT MAY 28 2016

NOTE: "FAIR" INDICATES FEW OR NO CLOUDS BELOW 12000 FEET WITH NO
SIGNIFICANT WEATHER AND/OR OBSTRUCTIONS TO VISIBILITY.

COZ001>005-013-030-031-282100-
...NORTHWEST COLORADO...

CITY           SKY/WX    TMP DP  RH WIND       PRES   REMARKS
CRAIG          PTSUNNY   64  35  34 W10       30.08F
HAYDEN         FAIR      63  34  34 NW14G20   30.10S
MEEKER         FAIR      67  34  29 W7        30.09S
MOUNT WERNER   NOT AVBL
STEAMBOAT SPGS FAIR      59  32  36 S5        30.12S
WALDEN         CLOUDY    54  30  40 W14       30.17S
$$

COZ006>008-011-282100-
...WEST CENTRAL VALLEYS...

CITY           SKY/WX    TMP DP  RH WIND       PRES   REMARKS
GRAND JUNCTION FAIR      71  32  23 VRB5      30.03F
MONTROSE       FAIR      69  29  22 SW15      30.10F
EAGLE          MOSUNNY   66  27  22 SW14      30.10F
RIFLE          PTSUNNY   70  35  27 NW13      30.06S
DELTA          FAIR      76  26  15 W14G23    30.06F
NUCLA          FAIR      70  25  18 N8        30.12F
$$

COZ017>023-064>068-282100-
...SOUTHWEST COLORADO...

CITY           SKY/WX    TMP DP  RH WIND       PRES   REMARKS
DURANGO        FAIR      67  26  21 W10       30.12S
CORTEZ         FAIR      72  28  19 VRB6      30.08F
PAGOSA SPRINGS FAIR      63  20  18 CALM      30.18S
TELLURIDE      PTSUNNY   58  23  26 SW6       30.24S
WOLF CREEK PAS FLURRIES  34  28  80 NW9G17    30.41R WCI  26
$$

COZ009-010-012-014-032>034-037-058>063-282100-
...CENTRAL COLORADO...

CITY           SKY/WX    TMP DP  RH WIND       PRES   REMARKS
ASPEN          LGT RAIN  57  32  38 SE10      30.17S
BUENA VISTA    FAIR      64  18  17 W12       30.14S
COPPER MTN     NOT AVBL
BERTHOUD PASS  CLOUDY    32  21  64 NW14      30.35R WCI  22
COTTONWOOD PAS PTSUNNY   59  14  17 SW9G20    30.24R
GUNNISON       FAIR      61  30  31 E5        30.18F
KREMMLING      PTSUNNY   54  36  50 E9        30.17F
LEADVILLE      PTSUNNY   49  24  37 N7G17     30.24S
MONARCH PASS   PTSUNNY   37  27  65 W16G33    30.46R
SALIDA         FAIR      67  25  20 W16G23    30.19F
SUNLIGHT       CLOUDY    46  27  46 CALM      30.34R
WILKERSON PASS FAIR      45  19  36 W6        30.33S
$$

COZ069>075-282100-
...SAN LUIS VALLEY/SANGRE DE CRISTO MOUNTAINS...

CITY           SKY/WX    TMP DP  RH WIND       PRES   REMARKS
ALAMOSA        FAIR      63  33  32 S9        30.15F
LA VETA PASS   FAIR      54  28  37 S7G20     30.29S
SAGUACHE       FAIR      63  32  31 SW12      30.16F
$$

COZ035-036-038>040-282100-
...NORTHERN COLORADO FRONT RANGE...

CITY           SKY/WX    TMP DP  RH WIND       PRES   REMARKS
DENVER INTL AP FAIR      69  43  38 SE9       30.02F
DMNS CITY PARK   N/A     70  34  26 S10G24    30.00S
AURORA         MOSUNNY   66  37  33 E7        30.04F
FRONT RANGE AP PTSUNNY   66  39  37 SE14G22   30.04F
ERIE MUNI ARPT FAIR      72  35  26 SE7G17    29.99F
BOULDER MUN AP FAIR      72  36  26 E8        29.99F
CENTENNIAL     FAIR      65  32  29 CALM      30.04F
BROOMFIELD     PTSUNNY   72  32  23 VRB6      30.03F
FORT COLLINS   FAIR      70  41  35 E6        30.00F
LONGMONT       CLOUDY    72  36  26 E3        30.01S
$$

COZ041-046-047-076>085-087-088-282100-
...PIKES PEAK/PALMER DIVIDE AND SOUTHERN FOOTHILLS...

CITY           SKY/WX    TMP DP  RH WIND       PRES   REMARKS
COLO. SPRINGS  PTSUNNY   65  33  30 S5        30.09S
A. F. ACADEMY  TSTM      63  36  36 SW9       30.09R
SCHRIEVER AFB  NOT AVBL
ELLICOTT       FAIR     N/A N/A N/A S9        30.07F
FALCON         FAIR      66  31  26 S7        30.12S
FORT CARSON    FAIR      67  36  31 SE9       30.06S
LIMON          FAIR      67  40  37 E8        30.06F
MONUMENT HILL  CLOUDY    57  34  41 E3        30.13R
TRINIDAD       PTSUNNY   68  34  28 NE7       30.08R
$$

COZ042>045-048>051-090-091-282100-
...NORTHEAST COLORADO...

CITY           SKY/WX    TMP DP  RH WIND       PRES   REMARKS
GREELEY ARPT   FAIR      73  41  31 S8        30.00S
AKRON          FAIR      69  45  41 W6        30.01F
BURLINGTON     FAIR      72  41  32 W8        30.02F
WRAY           FAIR      73  45  35 W7G17     29.98F
STERLING       FAIR      72  45  37 W8        29.96F
HOLYOKE        FAIR      77  43  29 SW3       29.97S
FORT MORGAN    FAIR      71  39  30 SW6       30.00F
$$

COZ086-089-092>099-282100-
...SOUTHEAST COLORADO...

CITY           SKY/WX    TMP DP  RH WIND       PRES   REMARKS
PUEBLO         FAIR      74  37  26 MISG      30.01F
LA JUNTA       FAIR      74  42  31 VRB3      30.01F
LAMAR          FAIR      75  45  34 E8        29.98F
SPRINGFIELD      N/A     75  40  28 SW10G21   30.02S
$$




USA.gov is the U.S. government's official web portal to all federal, state and local government web resources and services.